Location: Étavigny
(49.1201°N, 2.9800°E)
Time: 19:36:52
(UTC+00:00)

NOAA 16 DEB - Visible Passes

Search period start: 02 March 2024 00:00
Search period end: 12 March 2024 00:00
Orbit: 772 x 810 km, 98.9° (Epoch: 29 February)

Date Brightness Start Highest point End Pass type
(mag) Time Alt. Az. Time Alt. Az. Time Alt. Az.
10 Mar ? 00:33:17 11° N 00:33:17 11° N 00:33:24 10° N visible
11 Mar ? 00:03:29 11° N 00:03:29 11° N 00:03:46 10° N visible
11 Mar ? 23:33:41 11° NNE 23:33:41 11° NNE 23:33:52 10° NNE visible
